Location: 3 Angels Observatory
(30.5437°N, 88.5068°W)
Time: 06:29:36
(UTC-05:00)

Amateur Radio Satellites - All Passes

Search period start: 25 August 2016 05:59
Search period end: 26 August 2016 05:59
Location: 3 Angels Observatory, 30.5437°N, 88.5068°W

Satellite Date Start Highest point End Downlink Frequencies (MHz)
Time Altitude Azimuth
LilacSat-2 25 Aug 06:17:20 06:19:50 17° 96° (E) 06:22:18 437.200
PHONESAT 2.4 25 Aug 06:18:24 06:19:56 13° 6° (N) 06:21:28 2401.200-2431.200
GOMX 1 25 Aug 06:33:44 06:38:36 34° 96° (E) 06:43:15 467.674
AO-85 25 Aug 06:36:42 06:41:44 40° 301° (WNW) 06:46:33 145.980
BRITE-PL 25 Aug 06:41:44 06:47:27 83° 282° (WNW) 06:53:00 437.365/2234.400
DOVE 4 25 Aug 06:56:02 07:00:00 23° 94° (E) 07:03:46 437.250
Cubesat XI-IV 25 Aug 06:56:35 07:01:48 56° 101° (E) 07:07:00 437.490
YUBILEINY 25 Aug 07:02:36 07:11:28 87° 277° (W) 07:20:20 435.215
AO-7 25 Aug 07:03:26 07:05:28 11° 307° (NW) 07:07:31 29.400- 29.500
CUTE-I 25 Aug 07:09:20 07:14:40 78° 102° (ESE) 07:19:58 437.470
Cosmos 2504 25 Aug 07:13:09 07:20:55 38° 89° (E) 07:28:15 435.465 / 435.565
STRAND 1 25 Aug 07:17:54 07:22:56 62° 75° (ENE) 07:27:59 437.568
NOAA 15 25 Aug 07:20:27 07:25:42 62° 285° (WNW) 07:30:55 137.62
NOAA 18 25 Aug 07:24:26 07:29:56 87° 283° (WNW) 07:35:22 137.9125
LilacSat-2 25 Aug 07:51:07 07:54:01 21° 288° (WNW) 07:56:55 437.200
Cosmos 2491 25 Aug 07:53:56 07:59:55 21° 277° (W) 08:05:56 435.465 / 435.565
PHONESAT 2.4 25 Aug 07:54:07 07:56:51 32° 22° (NNE) 07:59:35 2401.200-2431.200
CANX-2 25 Aug 07:56:12 07:59:24 21° 96° (E) 08:02:36 2200.000
CINEMA 3 25 Aug 07:58:06 08:01:51 26° 96° (E) 08:05:27 145.822/145.860
CUTE 1.7 + AOD 2 25 Aug 08:02:51 08:06:06 21° 96° (E) 08:09:22 437.475
PRISM 25 Aug 08:09:49 08:12:40 19° 70° (ENE) 08:15:32 437.425
GOMX 1 25 Aug 08:12:13 08:16:22 23° 291° (WNW) 08:20:23 467.674
HO-68 25 Aug 08:18:33 08:25:17 43° 100° (E) 08:31:59 435.675
AAUSAT CUBESAT 2 25 Aug 08:21:48 08:23:20 12° 94° (E) 08:24:53 437.432
ISS 25 Aug 08:25:03 08:27:37 22° 128° (SE) 08:30:13 145.825
COMPASS 1 25 Aug 08:25:41 08:28:35 18° 95° (E) 08:31:28 437.405
DOVE 4 25 Aug 08:33:20 08:37:36 28° 289° (WNW) 08:41:40 437.250
CUBEBUG 2 25 Aug 08:36:10 08:38:54 17° 95° (E) 08:41:35 437.445
Cubesat XI-IV 25 Aug 08:38:38 08:41:20 14° 294° (WNW) 08:44:02 437.490
UWE-3 25 Aug 08:41:06 08:42:31 11° 93° (E) 08:43:56 435.000/436.395/437.385
STRAND 1 25 Aug 09:01:12 09:02:24 11° 267° (W) 09:03:36 437.568
ZACube-1 25 Aug 09:01:47 09:03:39 13° 94° (E) 09:05:29 437.345
YUBILEINY 25 Aug 09:05:29 09:09:20 13° 292° (WNW) 09:13:12 435.215
Cosmos 2504 25 Aug 09:06:23 09:14:08 36° 282° (WNW) 09:21:31 435.465 / 435.565
RS-15 25 Aug 09:13:49 09:22:10 20° 37° (NE) 09:30:24 29.354- 29.394
SEEDS 25 Aug 09:15:25 09:19:34 63° 284° (WNW) 09:23:44 437.485
PHONESAT 2.4 25 Aug 09:30:32 09:33:10 28° 216° (SW) 09:35:47 2401.200-2431.200
CANX-2 25 Aug 09:31:46 09:35:07 23° 288° (WNW) 09:38:29 2200.000
CINEMA 3 25 Aug 09:35:30 09:38:46 20° 290° (WNW) 09:41:57 145.822/145.860
SO-50 25 Aug 09:35:42 09:40:04 45° 59° (ENE) 09:44:20 436.795
CUTE 1.7 + AOD 2 25 Aug 09:38:30 09:41:48 22° 288° (WNW) 09:45:06 437.475
UNISAT 6 25 Aug 09:42:04 09:45:38 22° 71° (ENE) 09:49:09 437.425
PRISM 25 Aug 09:44:27 09:47:46 24° 263° (W) 09:51:06 437.425
AIST 1 25 Aug 09:48:59 09:53:18 88° 85° (E) 09:57:40
AAUSAT CUBESAT 2 25 Aug 09:55:02 09:58:54 38° 286° (WNW) 10:02:46 437.432
COMPASS 1 25 Aug 10:00:36 10:04:04 26° 287° (WNW) 10:07:31 437.405
ISS 25 Aug 10:01:18 10:04:00 23° 321° (NW) 10:06:42 145.825
BEESAT 2 25 Aug 10:02:37 10:05:58 27° 111° (ESE) 10:09:19 435.950
HO-68 25 Aug 10:06:45 10:12:41 29° 294° (WNW) 10:18:36 435.675
CUBEBUG 2 25 Aug 10:11:56 10:15:30 27° 288° (WNW) 10:19:00 437.445
HUMSAT D 25 Aug 10:12:07 10:14:45 17° 95° (E) 10:17:22 437.325/437.525
Oscar 11 25 Aug 10:12:21 10:16:39 72° 283° (WNW) 10:20:56 145.826/435.025
UWE-3 25 Aug 10:15:14 10:19:07 38° 286° (WNW) 10:22:56 435.000/436.395/437.385
FUNcube-1 25 Aug 10:16:02 10:20:09 70° 284° (WNW) 10:24:14 145.935
ANTELSAT 25 Aug 10:18:00 10:22:35 58° 76° (ENE) 10:27:05 437.575/2403.000
DELFI C3 25 Aug 10:22:25 10:26:21 55° 100° (E) 10:30:16 145.870
BEESAT 3 25 Aug 10:25:53 10:29:44 63° 298° (WNW) 10:33:38 437.485
CUSAT 1 25 Aug 10:28:47 10:34:56 40° 80° (E) 10:42:06 437.405
ZACube-1 25 Aug 10:36:15 10:40:00 34° 286° (WNW) 10:43:45 437.345
JUGNU 25 Aug 10:38:19 10:41:24 14° 163° (SSE) 10:44:30 437.505
TIGRISAT 25 Aug 10:49:44 10:54:20 62° 259° (WSW) 10:58:54 435.000
QB50P1 25 Aug 10:50:41 10:53:16 16° 69° (ENE) 10:55:52 145.935-145.965
M-CUBED/EXP-1 PRIME 25 Aug 10:52:16 10:52:56 10° 96° (E) 10:53:36 437.505
DANDE 25 Aug 10:59:30 11:04:11 26° 80° (E) 11:09:50 436.750
POPSAT HIP 1 25 Aug 10:59:48 11:02:57 20° 71° (ENE) 11:06:05 437.405
SO-50 25 Aug 11:18:03 11:20:03 13° 253° (WSW) 11:22:02 436.795
UNISAT 6 25 Aug 11:18:13 11:22:08 27° 263° (W) 11:26:02 437.425
GONETS M04 25 Aug 11:19:40 11:26:22 25° 84° (E) 11:33:05
RS-15 25 Aug 11:24:48 11:37:13 73° 61° (ENE) 11:49:13 29.354- 29.394
JAS-2 25 Aug 11:24:59 11:28:32 19° 67° (ENE) 11:32:10 435.910
CUBEBUG 1 25 Aug 11:25:55 11:27:06 11° 93° (E) 11:28:17 437.445
QB50P2 25 Aug 11:28:21 11:32:29 50° 75° (ENE) 11:36:38 145.880/145.840
DUCHIFAT 1 25 Aug 11:29:50 11:33:50 42° 75° (ENE) 11:37:52 145.980
POLYITAN 1 25 Aug 11:30:52 11:35:01 51° 75° (ENE) 11:39:11 437.675
BEESAT 2 25 Aug 11:41:01 11:43:45 18° 305° (NW) 11:46:30 435.950
NANOSAT C BR1 25 Aug 11:42:01 11:46:15 66° 76° (ENE) 11:50:29 145.865
ESTCUBE 1 25 Aug 11:43:01 11:47:02 31° 98° (E) 11:51:03 437.505/2401.250
HUMSAT D 25 Aug 11:46:54 11:50:18 26° 287° (WNW) 11:53:44 437.325/437.525
PCSat 25 Aug 11:49:58 11:55:02 43° 110° (ESE) 12:00:08 145.827
AIST 2 25 Aug 11:51:53 11:54:16 15° 109° (ESE) 11:56:40 435.215
50 SAT 25 Aug 11:59:30 12:02:19 21° 97° (E) 12:05:09 437.505
AISAT 25 Aug 12:02:50 12:06:40 28° 98° (E) 12:10:27 437.250
CUSAT 1 25 Aug 12:11:00 12:16:46 31° 268° (W) 12:23:22 437.405
Cosmos 2499 25 Aug 12:18:24 12:26:29 52° 91° (E) 12:34:00 435.465 / 435.565
AUBIESAT-1 25 Aug 12:20:27 12:24:23 56° 290° (WNW) 12:28:01 437.475
M-CUBED/EXP-1 PRIME 25 Aug 12:23:52 12:27:42 39° 291° (WNW) 12:31:15 437.505
QB50P1 25 Aug 12:24:54 12:28:44 32° 262° (W) 12:32:34 145.935-145.965
JUGNU 25 Aug 12:25:06 12:29:52 25° 172° (S) 12:34:36 437.505
UKube-1 25 Aug 12:26:45 12:30:18 24° 97° (E) 12:33:49 .
POPSAT HIP 1 25 Aug 12:35:00 12:38:31 25° 263° (W) 12:42:04 437.405
BUGSAT 1 25 Aug 12:36:01 12:40:15 71° 260° (W) 12:44:29 437.445
DANDE 25 Aug 12:41:32 12:46:46 38° 265° (W) 12:53:19 436.750
VELOX 1 25 Aug 12:49:57 12:54:25 80° 283° (WNW) 12:58:51 145.980
CUBEBUG 1 25 Aug 12:59:18 13:03:34 47° 285° (WNW) 13:07:46 437.445
DUCHIFAT 1 25 Aug 13:08:13 13:09:39 11° 266° (W) 13:11:05 145.980
JAS-2 25 Aug 13:08:37 13:13:20 36° 262° (W) 13:18:10 435.910
GONETS M04 25 Aug 13:14:03 13:22:31 55° 279° (W) 13:31:06
Oscar 19 25 Aug 13:15:50 13:20:44 47° 73° (ENE) 13:25:41 437.125/150
DX 1 25 Aug 13:16:28 13:20:46 57° 285° (WNW) 13:25:02 434.975-435.025
ESTCUBE 1 25 Aug 13:20:28 13:23:34 18° 290° (WNW) 13:26:40 437.505/2401.250
AIST 2 25 Aug 13:28:45 13:32:25 32° 302° (WNW) 13:36:10 435.215
SPROUT 25 Aug 13:29:23 13:33:32 52° 285° (WNW) 13:37:40 437.525
50 SAT 25 Aug 13:33:23 13:35:42 16° 289° (WNW) 13:38:00 437.505
PCSat 25 Aug 13:34:34 13:38:33 21° 304° (NW) 13:42:35 145.827
O/OREOS (USA 219) 25 Aug 13:35:57 13:39:24 22° 101° (ESE) 13:42:53 437.305
RS-15 25 Aug 13:39:12 13:48:29 26° 258° (WSW) 13:57:37 29.354- 29.394
AISAT 25 Aug 13:39:41 13:42:54 20° 290° (WNW) 13:46:06 437.250
SRMSAT 25 Aug 13:57:21 14:01:37 21° 167° (SSE) 14:05:53 437.500
TISAT 1 25 Aug 13:58:01 14:02:11 59° 101° (E) 14:06:17 437.305
UKube-1 25 Aug 14:02:53 14:06:09 21° 290° (WNW) 14:09:24 .
Gurwin Techsat 1B 25 Aug 14:04:53 14:10:08 66° 75° (ENE) 14:15:24 435.225
AO-7 25 Aug 14:09:34 14:14:43 18° 58° (ENE) 14:19:51 29.400- 29.500
BEESAT 25 Aug 14:10:20 14:12:13 12° 94° (E) 14:14:06 436.000
Cosmos 2499 25 Aug 14:13:07 14:19:41 25° 284° (WNW) 14:25:57 435.465 / 435.565
JUGNU 25 Aug 14:13:23 14:18:24 29° 182° (S) 14:23:23 437.505
ITAMSAT 1 25 Aug 14:24:54 14:29:16 28° 70° (ENE) 14:33:38 435.822/435.867
ITUPSAT 1 25 Aug 14:53:44 14:58:12 40° 100° (E) 15:02:40 437.325
Oscar 19 25 Aug 14:57:21 15:00:13 15° 266° (W) 15:03:06 437.125/150
AO-85 25 Aug 15:14:25 15:18:15 36° 58° (ENE) 15:21:51 145.980
O/OREOS (USA 219) 25 Aug 15:15:00 15:18:37 24° 295° (WNW) 15:22:17 437.305
SWISSCUBE 25 Aug 15:28:01 15:32:46 70° 285° (WNW) 15:37:30 437.505
SRMSAT 25 Aug 15:45:16 15:50:16 29° 177° (S) 15:55:16 437.500
BEESAT 25 Aug 15:45:36 15:50:10 49° 286° (WNW) 15:54:45 436.000
Gurwin Techsat 1B 25 Aug 15:49:07 15:50:24 11° 267° (W) 15:51:42 435.225
AO-7 25 Aug 15:58:05 16:06:28 83° 254° (WSW) 16:14:52 29.400- 29.500
JUGNU 25 Aug 16:02:29 16:06:54 22° 191° (SSW) 16:11:17 437.505
ITAMSAT 1 25 Aug 16:04:19 16:08:36 26° 263° (W) 16:12:54 435.822/435.867
MOZHAYETS 4 25 Aug 16:21:15 16:25:42 51° 100° (E) 16:30:09
ITUPSAT 1 25 Aug 16:32:45 16:35:40 16° 292° (WNW) 16:38:34 437.325
ISS 25 Aug 16:33:07 16:35:49 23° 39° (NE) 16:38:31 145.825
KKS-1 25 Aug 16:33:47 16:38:09 53° 101° (E) 16:42:29 437.445
HORYU 2 25 Aug 16:48:42 16:52:50 38° 73° (ENE) 16:56:59 437.375
AO-85 25 Aug 16:56:40 16:58:11 12° 253° (WSW) 16:59:41 145.980
Cosmos 2491 25 Aug 16:58:57 17:02:03 12° 79° (E) 17:05:09 435.465 / 435.565
NOAA 15 25 Aug 16:59:07 17:00:51 12° 64° (ENE) 17:02:36 137.62
NOAA 18 25 Aug 17:09:20 17:10:36 11° 63° (ENE) 17:11:53 137.9125
STARS 25 Aug 17:16:29 17:20:53 80° 102° (ESE) 17:25:15 437.465
YUBILEINY 25 Aug 17:20:34 17:28:26 36° 77° (ENE) 17:36:11 435.215
SRMSAT 25 Aug 17:34:07 17:38:57 26° 187° (S) 17:43:48 437.500
CUBESAT XI-V 25 Aug 17:34:39 17:39:00 37° 98° (E) 17:43:20 437.345
GOMX 1 25 Aug 17:36:34 17:40:06 20° 68° (ENE) 17:43:49 467.674
BRITE-PL 25 Aug 17:46:47 17:51:18 59° 75° (ENE) 17:56:14 437.365/2234.400
JUGNU 25 Aug 17:54:04 17:55:17 11° 200° (SSW) 17:56:32 437.505
DOVE 4 25 Aug 17:56:35 17:59:15 14° 66° (ENE) 18:01:57 437.250
AO-7 25 Aug 17:57:37 18:00:02 11° 267° (W) 18:02:28 29.400- 29.500
MOZHAYETS 4 25 Aug 18:00:45 18:02:22 12° 293° (WNW) 18:03:58
ISS 25 Aug 18:09:37 18:12:11 21° 232° (SW) 18:14:43 145.825
Cubesat XI-IV 25 Aug 18:12:56 18:18:07 54° 74° (ENE) 18:23:19 437.490
KKS-1 25 Aug 18:13:10 18:14:11 11° 294° (WNW) 18:15:13 437.445
CUTE-I 25 Aug 18:25:27 18:30:46 73° 75° (ENE) 18:36:05 437.470
LilacSat-2 25 Aug 18:26:22 18:30:13 76° 79° (E) 18:34:03 437.200
HORYU 2 25 Aug 18:27:07 18:29:28 14° 265° (W) 18:31:49 437.375
NOAA 15 25 Aug 18:34:47 18:39:59 68° 258° (WSW) 18:45:13 137.62
HO-68 25 Aug 18:43:10 18:47:44 18° 62° (ENE) 18:52:17 435.675
NOAA 18 25 Aug 18:44:58 18:50:31 79° 257° (WSW) 18:56:05 137.9125
Cosmos 2491 25 Aug 18:48:49 18:57:32 88° 97° (E) 19:06:19 435.465 / 435.565
BEESAT 3 25 Aug 18:49:46 18:51:40 13° 53° (NE) 18:53:33 437.485
CINEMA 3 25 Aug 18:54:35 18:57:31 16° 68° (ENE) 19:00:26 145.822/145.860
Cosmos 2504 25 Aug 19:05:11 19:12:17 59° 82° (E) 19:19:20 435.465 / 435.565
CUBESAT XI-V 25 Aug 19:13:04 19:16:02 17° 291° (WNW) 19:19:00 437.345
GOMX 1 25 Aug 19:13:22 19:17:49 36° 263° (W) 19:22:34 467.674
YUBILEINY 25 Aug 19:17:11 19:25:05 40° 272° (W) 19:32:57 435.215
SRMSAT 25 Aug 19:24:06 19:27:33 16° 196° (SSW) 19:31:02 437.500
DOVE 4 25 Aug 19:31:26 19:36:19 54° 261° (W) 19:41:27 437.250
STRAND 1 25 Aug 19:34:23 19:38:59 33° 98° (E) 19:43:34 437.568
Cubesat XI-IV 25 Aug 19:55:41 19:58:24 14° 266° (W) 20:01:08 437.490
SEEDS 25 Aug 20:01:28 20:05:20 39° 74° (ENE) 20:09:13 437.485
BEESAT 2 25 Aug 20:02:44 20:06:35 44° 60° (ENE) 20:10:24 435.950
AIST 1 25 Aug 20:03:45 20:05:45 13° 75° (ENE) 20:07:44
CANX-2 25 Aug 20:17:51 20:22:03 68° 260° (W) 20:26:14 2200.000
CUTE 1.7 + AOD 2 25 Aug 20:24:27 20:28:37 66° 259° (WSW) 20:32:48 437.475
BEESAT 3 25 Aug 20:25:46 20:29:28 40° 247° (WSW) 20:33:10 437.485
HO-68 25 Aug 20:27:33 20:34:42 70° 256° (WSW) 20:41:54 435.675
CINEMA 3 25 Aug 20:29:23 20:34:11 47° 261° (W) 20:39:01 145.822/145.860
AAUSAT CUBESAT 2 25 Aug 20:39:08 20:43:10 61° 76° (ENE) 20:47:13 437.432
COMPASS 1 25 Aug 20:44:47 20:48:54 84° 259° (WSW) 20:53:02 437.405
PCSat 25 Aug 20:45:52 20:47:42 12° 51° (NE) 20:49:31 145.827
Cosmos 2491 25 Aug 20:51:11 20:55:22 14° 292° (WNW) 20:59:35 435.465 / 435.565
Cosmos 2504 25 Aug 21:00:33 21:04:54 17° 276° (W) 21:09:15 435.465 / 435.565
Oscar 11 25 Aug 21:01:25 21:05:26 40° 74° (ENE) 21:09:28 145.826/435.025
CUBEBUG 2 25 Aug 21:02:53 21:07:37 72° 259° (W) 21:12:16 437.445
DELFI C3 25 Aug 21:04:15 21:06:28 15° 70° (ENE) 21:08:41 145.870
UWE-3 25 Aug 21:05:29 21:10:07 79° 77° (ENE) 21:14:41 435.000/436.395/437.385
FUNcube-1 25 Aug 21:05:29 21:09:45 43° 75° (ENE) 21:13:56 145.935
STRAND 1 25 Aug 21:14:04 21:17:53 22° 291° (WNW) 21:21:42 437.568
ZACube-1 25 Aug 21:25:22 21:29:54 84° 78° (ENE) 21:34:21 437.345
PRISM 25 Aug 21:30:28 21:34:38 67° 101° (E) 21:38:47 437.425
AIST 1 25 Aug 21:39:23 21:43:27 37° 268° (W) 21:47:29
SEEDS 25 Aug 21:39:45 21:41:08 11° 267° (W) 21:42:32 437.485
BEESAT 2 25 Aug 21:43:20 21:43:56 10° 253° (WSW) 21:44:34 435.950
AIST 2 25 Aug 21:55:06 21:58:43 28° 57° (ENE) 22:02:20 435.215
ANTELSAT 25 Aug 22:16:35 22:19:26 17° 95° (E) 22:22:16 437.575/2403.000
PCSat 25 Aug 22:26:15 22:31:41 82° 247° (WSW) 22:37:04 145.827
HUMSAT D 25 Aug 22:31:33 22:35:45 86° 260° (W) 22:39:55 437.325/437.525
DELFI C3 25 Aug 22:37:37 22:41:01 28° 263° (W) 22:44:25 145.870
ESTCUBE 1 25 Aug 22:38:24 22:40:56 15° 68° (ENE) 22:43:29 437.505/2401.250
Oscar 11 25 Aug 22:39:57 22:41:40 12° 266° (W) 22:43:22 145.826/435.025
FUNcube-1 25 Aug 22:44:11 22:46:04 12° 266° (W) 22:47:57 145.935
TIGRISAT 25 Aug 22:47:11 22:51:13 39° 99° (E) 22:55:10 435.000
AISAT 25 Aug 22:56:22 22:58:24 13° 68° (ENE) 23:00:27 437.250
AUBIESAT-1 25 Aug 22:59:35 23:04:06 67° 72° (ENE) 23:08:44 437.475
M-CUBED/EXP-1 PRIME 25 Aug 23:03:14 23:07:49 89° 265° (W) 23:12:32 437.505
UNISAT 6 25 Aug 23:14:52 23:19:10 81° 281° (W) 23:23:24 437.425
UKube-1 25 Aug 23:18:29 23:19:20 10° 67° (ENE) 23:20:10 .
QB50P2 25 Aug 23:20:46 23:22:37 13° 94° (E) 23:24:26 145.880/145.840
POLYITAN 1 25 Aug 23:23:16 23:25:08 13° 94° (E) 23:27:01 437.675
CUSAT 1 25 Aug 23:29:04 23:31:20 26° 92° (E) 23:33:51 437.405
GONETS M04 25 Aug 23:31:03 23:39:48 60° 81° (E) 23:48:27
NANOSAT C BR1 25 Aug 23:33:17 23:35:55 16° 95° (E) 23:38:31 145.865
AIST 2 25 Aug 23:34:01 23:36:58 19° 250° (WSW) 23:39:55 435.215
RS-15 25 Aug 23:35:44 23:40:36 14° 98° (E) 23:45:33 29.354- 29.394
VELOX 1 25 Aug 23:41:32 23:45:43 43° 74° (ENE) 23:49:55 145.980
SO-50 25 Aug 23:43:46 23:48:32 57° 114° (ESE) 23:53:17 436.795
CUBEBUG 1 25 Aug 23:49:06 23:53:26 68° 77° (ENE) 23:57:49 437.445
O/OREOS (USA 219) 25 Aug 23:51:22 23:54:36 19° 64° (ENE) 23:57:50 437.305
ANTELSAT 25 Aug 23:52:29 23:56:07 27° 288° (WNW) 23:59:43 437.575/2403.000
50 SAT 26 Aug 00:03:40 00:07:15 88° 74° (ENE) 00:10:50 437.505
DX 1 26 Aug 00:06:02 00:10:18 57° 75° (ENE) 00:14:36 434.975-435.025
DANDE 26 Aug 00:06:10 00:08:00 17° 94° (E) 00:09:49 436.750
Cosmos 2499 26 Aug 00:08:52 00:15:57 81° 84° (E) 00:23:09 435.465 / 435.565
ESTCUBE 1 26 Aug 00:13:15 00:17:23 37° 261° (W) 00:21:32 437.505/2401.250
QB50P1 26 Aug 00:14:43 00:18:53 61° 101° (E) 00:23:01 145.935-145.965
SPROUT 26 Aug 00:16:52 00:21:04 53° 75° (ENE) 00:25:16 437.525
JAS-2 26 Aug 00:21:02 00:27:30 39° 99° (E) 00:34:29 435.910
BUGSAT 1 26 Aug 00:24:06 00:27:29 24° 97° (E) 00:30:48 437.445
POPSAT HIP 1 26 Aug 00:24:28 00:28:42 81° 104° (ESE) 00:32:52 437.405
TIGRISAT 26 Aug 00:25:41 00:27:29 12° 292° (WNW) 00:29:17 435.000
AISAT 26 Aug 00:30:14 00:34:26 43° 260° (W) 00:38:42 437.250
TISAT 1 26 Aug 00:44:44 00:47:57 21° 71° (ENE) 00:51:10 437.305
UKube-1 26 Aug 00:50:41 00:54:52 51° 260° (W) 00:59:05 .
QB50P2 26 Aug 00:54:36 00:58:29 37° 287° (WNW) 01:02:22 145.880/145.840
DUCHIFAT 1 26 Aug 00:54:55 00:58:55 45° 285° (WNW) 01:02:54 145.980
POLYITAN 1 26 Aug 00:57:09 01:01:01 36° 286° (WNW) 01:04:51 437.675
NANOSAT C BR1 26 Aug 01:08:00 01:11:38 29° 287° (WNW) 01:15:15 145.865
VELOX 1 26 Aug 01:20:32 01:22:18 12° 266° (W) 01:24:05 145.980
SO-50 26 Aug 01:26:39 01:29:20 15° 309° (NW) 01:31:59 436.795
GONETS M04 26 Aug 01:29:23 01:35:51 23° 277° (W) 01:42:19
O/OREOS (USA 219) 26 Aug 01:29:57 01:34:00 31° 257° (WSW) 01:38:02 437.305
Oscar 19 26 Aug 01:33:28 01:37:50 27° 97° (E) 01:42:11 437.125/150
RS-15 26 Aug 01:39:40 01:51:00 81° 114° (ESE) 02:03:01 29.354- 29.394
PHONESAT 2.4 26 Aug 01:55:25 01:58:23 63° 149° (SSE) 02:01:21 2401.200-2431.200
ITUPSAT 1 26 Aug 01:55:26 01:59:17 25° 70° (ENE) 02:03:08 437.325
BUGSAT 1 26 Aug 01:59:45 02:02:38 19° 290° (WNW) 02:05:29 437.445
Cosmos 2499 26 Aug 02:06:14 02:08:05 11° 278° (W) 02:09:56 435.465 / 435.565
JAS-2 26 Aug 02:06:14 02:12:18 34° 289° (WNW) 02:18:52 435.910
TISAT 1 26 Aug 02:20:01 02:23:25 23° 263° (W) 02:26:50 437.305
Gurwin Techsat 1B 26 Aug 02:26:59 02:32:00 42° 99° (E) 02:37:00 435.225
SWISSCUBE 26 Aug 02:28:38 02:33:21 70° 76° (ENE) 02:38:05 437.505
ITAMSAT 1 26 Aug 02:44:17 02:47:18 16° 95° (E) 02:50:18 435.822/435.867
BEESAT 26 Aug 02:45:58 02:50:43 84° 256° (WSW) 02:55:29 436.000
Oscar 19 26 Aug 03:12:40 03:17:01 28° 290° (WNW) 03:21:21 437.125/150
MOZHAYETS 4 26 Aug 03:18:03 03:21:46 25° 71° (ENE) 03:25:28
KKS-1 26 Aug 03:26:43 03:30:21 25° 71° (ENE) 03:33:59 437.445
PHONESAT 2.4 26 Aug 03:32:31 03:34:54 21° 343° (NNW) 03:37:18 2401.200-2431.200
ITUPSAT 1 26 Aug 03:33:05 03:36:58 25° 263° (W) 03:40:53 437.325
RS-15 26 Aug 03:55:27 04:04:48 27° 316° (NW) 04:14:36 29.354- 29.394
AO-7 26 Aug 04:06:23 04:14:21 49° 102° (ESE) 04:22:15 29.400- 29.500
STARS 26 Aug 04:07:35 04:11:35 34° 72° (ENE) 04:15:35 437.465
Gurwin Techsat 1B 26 Aug 04:07:57 04:11:35 19° 292° (WNW) 04:15:12 435.225
ITAMSAT 1 26 Aug 04:21:58 04:26:54 46° 287° (WNW) 04:31:49 435.822/435.867
CUBESAT XI-V 26 Aug 04:33:19 04:36:32 19° 70° (ENE) 04:39:46 437.345
HORYU 2 26 Aug 04:47:33 04:48:50 11° 94° (E) 04:50:07 437.375
MOZHAYETS 4 26 Aug 04:55:13 04:58:48 23° 264° (W) 05:02:23
KKS-1 26 Aug 05:03:17 05:06:47 22° 263° (W) 05:10:18 437.445
Cosmos 2491 26 Aug 05:06:49 05:14:37 34° 76° (ENE) 05:22:23 435.465 / 435.565
PHONESAT 2.4 26 Aug 05:10:38 05:11:58 12° 359° (N) 05:13:18 2401.200-2431.200
AO-85 26 Aug 05:21:36 05:26:51 55° 114° (ESE) 05:31:55 145.980
STARS 26 Aug 05:45:15 05:47:56 16° 265° (W) 05:50:38 437.465
